Home   Weather   Monongahela   Past weeks
Flag for USA

Past Weather in Monongahela, Pennsylvania, USA — Yesterday and Last 2 Weeks

Now
42 °F

Clear.


Feels Like: 40 °F
Forecast: 66 / 30 °F
Wind: 3 mph from East

Location: Allegheny County Airport

Current Time: Oct 19, 2019 at 1:43:20 am

Latest Report: Oct 19, 2019 at 12:53 am


Visibility: 10 mi

Pressure: 30.04 "Hg

Humidity: 82%

Dew Point: 37 °F

Location of MonongahelaLocation

Past Weather in Monongahela — Graph

°F

Monongahela Temperature Yesterday

Maximum temperature yesterday: 55 °F (at 2:53 pm)
Minimum temperature yesterday: 39 °F (at 5:53 am)
Average temperature yesterday: 47 °F

High & Low Weather Summary for the Past Weeks

 TemperatureHumidityPressure
High74 °F (Oct 11, 3:53 pm)100% (Oct 7, 12:18 am)30.34 "Hg (Oct 7, 12:18 am)
Low37 °F (Oct 13, 5:10 am)32% (Oct 15, 4:53 pm)29.63 "Hg (Oct 16, 9:53 am)
Average55 °F74%30.07 "Hg
* Reported Oct 3 11:53 pm — Oct 18 11:53 pm, Monongahela. Weather by CustomWeather, © 2019

Note: Actual official high and low records may vary slightly from our data, if they occured in-between our weather recording intervals... More about our weather records

Advertising

Monongahela Weather History for the Previous 24 Hours

Scroll right to see more
 ConditionsComfort  
Time TempWeatherWind HumidityBarometerVisibility
11:53 pm
Fri, Oct 18
44 °FClear.3 mph76%30.06 "Hg10 mi
10:53 pm46 °FClear.3 mph71%30.08 "Hg10 mi
9:53 pm47 °FClear.5 mph69%30.08 "Hg10 mi
8:53 pm49 °FClear.No wind64%30.07 "Hg10 mi
7:53 pm50 °FClear.No wind59%30.07 "Hg10 mi
6:53 pm51 °FClear.5 mph56%30.06 "Hg10 mi
5:53 pm53 °FSunny.No wind52%30.06 "Hg10 mi
4:53 pm53 °FPartly sunny.5 mph55%30.07 "Hg10 mi
3:53 pm52 °FPassing clouds.No wind53%30.06 "Hg10 mi
2:53 pm55 °FOvercast.N/A51%30.06 "Hg10 mi
1:53 pm52 °FOvercast.7 mph55%30.07 "Hg10 mi
12:53 pm52 °FOvercast.3 mph57%30.08 "Hg10 mi
11:53 am50 °FScattered clouds.10 mph57%30.08 "Hg10 mi
10:53 am50 °FPassing clouds.7 mph63%30.08 "Hg10 mi
9:53 am47 °FSunny.7 mph74%30.08 "Hg10 mi
8:53 am43 °FSunny.5 mph86%30.06 "Hg10 mi
7:53 am41 °FPartly sunny.5 mph89%30.04 "Hg10 mi
6:53 am41 °FOvercast.5 mph86%30.02 "Hg10 mi
5:53 am39 °FClear.6 mph93%30.01 "Hg10 mi
4:53 am40 °FClear.7 mph89%29.99 "Hg10 mi
3:53 am40 °FClear.6 mph89%29.98 "Hg10 mi
2:53 am42 °FPassing clouds.7 mph85%29.97 "Hg10 mi
1:53 am43 °FPassing clouds.6 mph86%29.97 "Hg10 mi
Weather by CustomWeather, © 2019

See weather overview